Weather History for China Lake, CA

Change the Weather History Date:

Friday, January 3, 2014

  Actual Average Record
Temperature  
Mean Temperature 46 °F -  
Max Temperature 64 °F 56 °F 68 °F (2012)
Min Temperature 28 °F 31 °F 18 °F (2013)
Degree Days  
Heating Degree Days 19    
Moisture  
Dew Point 21 °F    
Average Humidity 40    
Maximum Humidity 61    
Minimum Humidity 22    
Precipitation  
Precipitation 0.00 in - - ()
Sea Level Pressure  
Sea Level Pressure 30.04 in    
Wind  
Wind Speed 3 mph (SSW)    
Max Wind Speed 9 mph    
Max Gust Speed -    
Averages and records for this station are not official NWS values.
T = Trace of Precipitation, MM = Missing Value Source: NWS Daily Summary

Daily Weather History Graph

Daily Weather History Graph

Search for Another Location

Airport:

Trip Planner

Search our weather history database for the weather conditions in past years. The results will help you decide how hot, cold, wet, or windy it might be!

Date:

Astronomy

Jan. 03, 2014 Rise Set
Actual Time 7:00 AM PST 4:50 PM PST
Civil Twilight 6:32 AM PST 5:18 PM PST
Nautical Twilight 6:00 AM PST 5:50 PM PST
Astronomical Twilight 5:29 AM PST 6:21 PM PST
Moon 8:36 AM PST (1/3) 7:57 PM PST (1/3)
Length of Visible Light 10h 45m
Length of Day
9h 49m
Waxing Crescent, 8% of the Moon is Illuminated
Jan 3
Waxing Crescent
Jan 7
First Quarter
Jan 15
Full
Jan 23
Last Quarter
Jan 30
New

Hourly Weather History & Observations

Time (PST) Temp. Windchill Dew Point Humidity Pressure Visibility Wind Dir Wind Speed Gust Speed Precip Events Conditions
12:56 AM 36.0 °F 29.6 °F 19.9 °F 52% 30.12 in - WSW 8.1 mph - N/A   Clear
1:56 AM 37.0 °F - 19.9 °F 50% 30.10 in - Calm Calm - N/A   Clear
2:56 AM 30.9 °F - 15.1 °F 52% 30.11 in - Calm Calm - N/A   Clear
3:56 AM 30.0 °F 24.1 °F 15.1 °F 54% 30.09 in - South 5.8 mph - N/A   Clear
4:56 AM 32.0 °F 27.5 °F 19.0 °F 59% 30.09 in - West 4.6 mph - N/A   Clear
5:56 AM 28.9 °F - 17.1 °F 61% 30.11 in - Calm Calm - N/A   Clear
6:56 AM 30.0 °F 26.5 °F 18.0 °F 61% 30.12 in - SSW 3.5 mph - N/A   Clear
7:56 AM 34.0 °F - 19.9 °F 56% 30.14 in - Calm Calm - N/A   Clear
8:56 AM 43.0 °F - 21.9 °F 43% 30.13 in - Calm Calm - N/A   Clear
9:56 AM 48.0 °F - 21.9 °F 36% 30.14 in - Calm Calm - N/A   Clear
10:56 AM 51.1 °F - 21.9 °F 32% 30.10 in - Calm Calm - N/A   Clear
11:56 AM 57.0 °F - 23.0 °F 27% 30.04 in - Calm Calm - N/A   Clear
12:56 PM 62.1 °F - 24.1 °F 23% 30.00 in - Calm Calm - N/A   Clear
1:56 PM 62.1 °F - 24.1 °F 23% 29.98 in - Calm Calm - N/A   Clear
2:56 PM 64.0 °F - 24.1 °F 22% 29.98 in - South 4.6 mph - N/A   Clear
3:56 PM 64.0 °F - 24.1 °F 22% 29.96 in - Calm Calm - N/A   Clear
4:56 PM 59.0 °F - 24.1 °F 26% 29.96 in - NNE 3.5 mph - N/A   Clear
5:56 PM 51.1 °F - 21.9 °F 32% 29.98 in - Calm Calm - N/A   Clear
6:56 PM 46.9 °F - 21.0 °F 36% 29.98 in - SSW 6.9 mph - N/A   Clear
7:56 PM 46.0 °F 41.4 °F 19.9 °F 35% 29.99 in - SSW 9.2 mph - N/A   Clear
8:56 PM 45.0 °F - 21.0 °F 39% 29.99 in - Calm Calm - N/A   Clear
9:56 PM 41.0 °F 37.1 °F 19.9 °F 43% 29.98 in - SSW 5.8 mph - N/A   Clear
10:56 PM 44.1 °F 40.8 °F 21.0 °F 40% 29.97 in - SW 5.8 mph - N/A   Clear
11:56 PM 39.9 °F 37.8 °F 21.0 °F 47% 29.96 in - SSW 3.5 mph - N/A   Clear